Year,Month,Day,Hour,Minute,Value (Times are PST for temperature in C)
2015,03,22,00,00,5.90
2015,03,22,00,01,5.80
2015,03,22,00,02,5.80
2015,03,22,00,03,5.80
2015,03,22,00,04,5.80
2015,03,22,00,05,5.80
2015,03,22,00,06,5.80
2015,03,22,00,07,5.70
2015,03,22,00,08,5.70
2015,03,22,00,09,5.70
2015,03,22,00,10,5.70
2015,03,22,00,11,5.70
2015,03,22,00,12,5.70
2015,03,22,00,13,5.70
2015,03,22,00,14,5.60
2015,03,22,00,15,5.60
2015,03,22,00,16,5.60
2015,03,22,00,17,5.60
2015,03,22,00,18,5.60
2015,03,22,00,19,5.60
2015,03,22,00,20,5.50
2015,03,22,00,21,5.50
2015,03,22,00,22,5.50
2015,03,22,00,23,5.40
2015,03,22,00,24,5.40
2015,03,22,00,25,5.40
2015,03,22,00,26,5.30
2015,03,22,00,27,5.30
2015,03,22,00,28,5.30
2015,03,22,00,29,5.30
2015,03,22,00,30,5.30
2015,03,22,00,31,5.20
2015,03,22,00,32,5.20
2015,03,22,00,33,5.20
2015,03,22,00,34,5.20
2015,03,22,00,35,5.20
2015,03,22,00,36,5.20
2015,03,22,00,37,5.20
2015,03,22,00,38,5.20
2015,03,22,00,39,5.10
2015,03,22,00,40,5.10
2015,03,22,00,41,5.10
2015,03,22,00,42,5.10
2015,03,22,00,43,5.10
2015,03,22,00,44,5.00
2015,03,22,00,45,5.00
2015,03,22,00,46,5.00
2015,03,22,00,47,5.00
2015,03,22,00,48,4.90
2015,03,22,00,49,4.90
2015,03,22,00,50,4.90
2015,03,22,00,51,4.90
2015,03,22,00,52,4.90
2015,03,22,00,53,4.80
2015,03,22,00,54,4.90
2015,03,22,00,55,4.90
2015,03,22,00,56,4.80
2015,03,22,00,57,4.80
2015,03,22,00,58,4.80
2015,03,22,00,59,4.90
2015,03,22,01,00,4.80
2015,03,22,01,01,4.80
2015,03,22,01,02,4.80
2015,03,22,01,03,4.80
2015,03,22,01,04,4.80
2015,03,22,01,05,4.80
2015,03,22,01,06,4.80
2015,03,22,01,07,4.80
2015,03,22,01,08,4.80
2015,03,22,01,09,4.80
2015,03,22,01,10,4.80
2015,03,22,01,11,4.80
2015,03,22,01,12,4.80
2015,03,22,01,13,4.80
2015,03,22,01,14,4.80
2015,03,22,01,15,4.80
2015,03,22,01,16,4.80
2015,03,22,01,17,4.80
2015,03,22,01,18,4.80
2015,03,22,01,19,4.80
2015,03,22,01,20,4.80
2015,03,22,01,21,4.80
2015,03,22,01,22,4.80
2015,03,22,01,23,4.80
2015,03,22,01,24,4.80
2015,03,22,01,25,4.80
2015,03,22,01,26,4.80
2015,03,22,01,27,4.80
2015,03,22,01,28,4.80
2015,03,22,01,29,4.80
2015,03,22,01,30,4.80
2015,03,22,01,31,4.80
2015,03,22,01,32,4.80
2015,03,22,01,33,4.80
2015,03,22,01,34,4.70
2015,03,22,01,35,4.70
2015,03,22,01,36,4.70
2015,03,22,01,37,4.70
2015,03,22,01,38,4.70
2015,03,22,01,39,4.70
2015,03,22,01,40,4.70
2015,03,22,01,41,4.70
2015,03,22,01,42,4.60
2015,03,22,01,43,4.60
2015,03,22,01,44,4.60
2015,03,22,01,45,4.60
2015,03,22,01,46,4.60
2015,03,22,01,47,4.60
2015,03,22,01,48,4.60
2015,03,22,01,49,4.60
2015,03,22,01,50,4.60
2015,03,22,01,51,4.50
2015,03,22,01,52,4.50
2015,03,22,01,53,4.50
2015,03,22,01,54,4.50
2015,03,22,01,55,4.50
2015,03,22,01,56,4.50
2015,03,22,01,57,4.50
2015,03,22,01,58,4.50
2015,03,22,01,59,4.50
2015,03,22,02,00,4.50
2015,03,22,02,01,4.50
2015,03,22,02,02,4.50
2015,03,22,02,03,4.50
2015,03,22,02,04,4.40
2015,03,22,02,05,4.40
2015,03,22,02,06,4.40
2015,03,22,02,07,4.40
2015,03,22,02,08,4.40
2015,03,22,02,09,4.40
2015,03,22,02,10,4.40
2015,03,22,02,11,4.40
2015,03,22,02,12,4.40
2015,03,22,02,13,4.40
2015,03,22,02,14,4.40
2015,03,22,02,15,4.40
2015,03,22,02,16,4.40
2015,03,22,02,17,4.40
2015,03,22,02,18,4.40
2015,03,22,02,19,4.40
2015,03,22,02,20,4.40
2015,03,22,02,21,4.40
2015,03,22,02,22,4.40
2015,03,22,02,23,4.40
2015,03,22,02,24,4.30
2015,03,22,02,25,4.30
2015,03,22,02,26,4.30
2015,03,22,02,27,4.30
2015,03,22,02,28,4.30
2015,03,22,02,29,4.30
2015,03,22,02,30,4.30
2015,03,22,02,31,4.30
2015,03,22,02,32,4.20
2015,03,22,02,33,4.20
2015,03,22,02,34,4.20
2015,03,22,02,35,4.20
2015,03,22,02,36,4.20
2015,03,22,02,37,4.20
2015,03,22,02,38,4.20
2015,03,22,02,39,4.20
2015,03,22,02,40,4.20
2015,03,22,02,41,4.20
2015,03,22,02,42,4.20
2015,03,22,02,43,4.20
2015,03,22,02,44,4.20
2015,03,22,02,45,4.20
2015,03,22,02,46,4.20
2015,03,22,02,47,4.20
2015,03,22,02,48,4.20
2015,03,22,02,49,4.20
2015,03,22,02,50,4.20
2015,03,22,02,51,4.20
2015,03,22,02,52,4.20
2015,03,22,02,53,4.20
2015,03,22,02,54,4.20
2015,03,22,02,55,4.20
2015,03,22,02,56,4.20
2015,03,22,02,57,4.20
2015,03,22,02,58,4.20
2015,03,22,02,59,4.20
2015,03,22,03,00,4.30
2015,03,22,03,01,4.20
2015,03,22,03,02,4.30
2015,03,22,03,03,4.30
2015,03,22,03,04,4.30
2015,03,22,03,05,4.30
2015,03,22,03,06,4.30
2015,03,22,03,07,4.30
2015,03,22,03,08,4.30
2015,03,22,03,09,4.30
2015,03,22,03,10,4.30
2015,03,22,03,11,4.30
2015,03,22,03,12,4.30
2015,03,22,03,13,4.30
2015,03,22,03,14,4.30
2015,03,22,03,15,4.30
2015,03,22,03,16,4.30
2015,03,22,03,17,4.30
2015,03,22,03,18,4.30
2015,03,22,03,19,4.30
2015,03,22,03,20,4.30
2015,03,22,03,21,4.30
2015,03,22,03,22,4.30
2015,03,22,03,23,4.30
2015,03,22,03,24,4.30
2015,03,22,03,25,4.30
2015,03,22,03,26,4.30
2015,03,22,03,27,4.30
2015,03,22,03,28,4.30
2015,03,22,03,29,4.30
2015,03,22,03,30,4.30
2015,03,22,03,31,4.30
2015,03,22,03,32,4.30
2015,03,22,03,33,4.30
2015,03,22,03,34,4.30
2015,03,22,03,35,4.30
2015,03,22,03,36,4.30
2015,03,22,03,37,4.30
2015,03,22,03,38,4.40
2015,03,22,03,39,4.40
2015,03,22,03,40,4.40
2015,03,22,03,41,4.40
2015,03,22,03,42,4.40
2015,03,22,03,43,4.40
2015,03,22,03,44,4.40
2015,03,22,03,45,4.40
2015,03,22,03,46,4.50
2015,03,22,03,47,4.50
2015,03,22,03,48,4.50
2015,03,22,03,49,4.50
2015,03,22,03,50,4.50
2015,03,22,03,51,4.50
2015,03,22,03,52,4.60
2015,03,22,03,53,4.60
2015,03,22,03,54,4.60
2015,03,22,03,55,4.60
2015,03,22,03,56,4.60
2015,03,22,03,57,4.60
2015,03,22,03,58,4.60
2015,03,22,03,59,4.60
2015,03,22,04,00,4.60
2015,03,22,04,01,4.60
2015,03,22,04,02,4.60
2015,03,22,04,03,4.60
2015,03,22,04,04,4.60
2015,03,22,04,05,4.60
2015,03,22,04,06,4.60
2015,03,22,04,07,4.60
2015,03,22,04,08,4.60
2015,03,22,04,09,4.70
2015,03,22,04,10,4.70
2015,03,22,04,11,4.70
2015,03,22,04,12,4.70
2015,03,22,04,13,4.70
2015,03,22,04,14,4.70
2015,03,22,04,15,4.70
2015,03,22,04,16,4.70
2015,03,22,04,17,4.70
2015,03,22,04,18,4.70
2015,03,22,04,19,4.70
2015,03,22,04,20,4.70
2015,03,22,04,21,4.70
2015,03,22,04,22,4.70
2015,03,22,04,23,4.70
2015,03,22,04,24,4.70
2015,03,22,04,25,4.70
2015,03,22,04,26,4.70
2015,03,22,04,27,4.70
2015,03,22,04,28,4.70
2015,03,22,04,29,4.70
2015,03,22,04,30,4.70
2015,03,22,04,31,4.70
2015,03,22,04,32,4.70
2015,03,22,04,33,4.70
2015,03,22,04,34,4.70
2015,03,22,04,35,4.80
2015,03,22,04,36,4.80
2015,03,22,04,37,4.80
2015,03,22,04,38,4.80
2015,03,22,04,39,4.80
2015,03,22,04,40,4.80
2015,03,22,04,41,4.80
2015,03,22,04,42,4.80
2015,03,22,04,43,4.80
2015,03,22,04,44,4.80
2015,03,22,04,45,4.80
2015,03,22,04,46,4.80
2015,03,22,04,47,4.80
2015,03,22,04,48,4.80
2015,03,22,04,49,4.80
2015,03,22,04,50,4.80
2015,03,22,04,51,4.80
2015,03,22,04,52,4.80
2015,03,22,04,53,4.80
2015,03,22,04,54,4.80
2015,03,22,04,55,4.80
2015,03,22,04,56,4.80
2015,03,22,04,57,4.80
2015,03,22,04,58,4.80
2015,03,22,04,59,4.80
2015,03,22,05,00,4.80
2015,03,22,05,01,4.80
2015,03,22,05,02,4.80
2015,03,22,05,03,4.80
2015,03,22,05,04,4.80
2015,03,22,05,05,4.80
2015,03,22,05,06,4.80
2015,03,22,05,07,4.80
2015,03,22,05,08,4.80
2015,03,22,05,09,4.80
2015,03,22,05,10,4.80
2015,03,22,05,11,4.80
2015,03,22,05,12,4.80
2015,03,22,05,13,4.80
2015,03,22,05,14,4.80
2015,03,22,05,15,4.80
2015,03,22,05,16,4.80
2015,03,22,05,17,4.80
2015,03,22,05,18,4.80
2015,03,22,05,19,4.80
2015,03,22,05,20,4.90
2015,03,22,05,21,4.90
2015,03,22,05,22,4.90
2015,03,22,05,23,4.90
2015,03,22,05,24,4.90
2015,03,22,05,25,4.90
2015,03,22,05,26,4.90
2015,03,22,05,27,4.90
2015,03,22,05,28,4.90
2015,03,22,05,29,4.90
2015,03,22,05,30,4.90
2015,03,22,05,31,4.90
2015,03,22,05,32,4.90
2015,03,22,05,33,5.00
2015,03,22,05,34,4.90
2015,03,22,05,35,5.00
2015,03,22,05,36,5.00
2015,03,22,05,37,5.00
2015,03,22,05,38,5.00
2015,03,22,05,39,5.00
2015,03,22,05,40,5.00
2015,03,22,05,41,5.00
2015,03,22,05,42,5.00
2015,03,22,05,43,5.00
2015,03,22,05,44,5.00
2015,03,22,05,45,5.00
2015,03,22,05,46,5.00
2015,03,22,05,47,5.10
2015,03,22,05,48,5.10
2015,03,22,05,49,5.10
2015,03,22,05,50,5.10
2015,03,22,05,51,5.10
2015,03,22,05,52,5.10
2015,03,22,05,53,5.10
2015,03,22,05,54,5.10
2015,03,22,05,55,5.10
2015,03,22,05,56,5.10
2015,03,22,05,57,5.10
2015,03,22,05,58,5.10
2015,03,22,05,59,5.10
2015,03,22,06,00,5.00
2015,03,22,06,01,5.10
2015,03,22,06,02,5.10
2015,03,22,06,03,5.10
2015,03,22,06,04,5.10
2015,03,22,06,05,5.10
2015,03,22,06,06,5.10
2015,03,22,06,07,5.10
2015,03,22,06,08,5.10
2015,03,22,06,09,5.10
2015,03,22,06,10,5.10
2015,03,22,06,11,5.10
2015,03,22,06,12,5.10
2015,03,22,06,13,5.10
2015,03,22,06,14,5.10
2015,03,22,06,15,5.10
2015,03,22,06,16,5.10
2015,03,22,06,17,5.10
2015,03,22,06,18,5.10
2015,03,22,06,19,5.10
2015,03,22,06,20,5.20
2015,03,22,06,21,5.20
2015,03,22,06,22,5.20
2015,03,22,06,23,5.20
2015,03,22,06,24,5.20
2015,03,22,06,25,5.20
2015,03,22,06,26,5.20
2015,03,22,06,27,5.20
2015,03,22,06,28,5.20
2015,03,22,06,29,5.20
2015,03,22,06,30,5.30
2015,03,22,06,31,5.30
2015,03,22,06,32,5.30
2015,03,22,06,33,5.30
2015,03,22,06,34,5.30
2015,03,22,06,35,5.30
2015,03,22,06,36,5.30
2015,03,22,06,37,5.40
2015,03,22,06,38,5.40
2015,03,22,06,39,5.40
2015,03,22,06,40,5.40
2015,03,22,06,41,5.40
2015,03,22,06,42,5.40
2015,03,22,06,43,5.40
2015,03,22,06,44,5.40
2015,03,22,06,45,5.40
2015,03,22,06,46,5.50
2015,03,22,06,47,5.50
2015,03,22,06,48,5.50
2015,03,22,06,49,5.50
2015,03,22,06,50,5.50
2015,03,22,06,51,5.50
2015,03,22,06,52,5.50
2015,03,22,06,53,5.50
2015,03,22,06,54,5.50
2015,03,22,06,55,5.50
2015,03,22,06,56,5.50
2015,03,22,06,57,5.50
2015,03,22,06,58,5.50
2015,03,22,06,59,5.50
2015,03,22,07,00,5.50
2015,03,22,07,01,5.50
2015,03,22,07,02,5.60
2015,03,22,07,03,5.60
2015,03,22,07,04,5.60
2015,03,22,07,05,5.60
2015,03,22,07,06,5.60
2015,03,22,07,07,5.60
2015,03,22,07,08,5.60
2015,03,22,07,09,5.60
2015,03,22,07,10,5.60
2015,03,22,07,11,5.60
2015,03,22,07,12,5.60
2015,03,22,07,13,5.70
2015,03,22,07,14,5.70
2015,03,22,07,15,5.60
2015,03,22,07,16,5.70
2015,03,22,07,17,5.60
2015,03,22,07,18,5.60
2015,03,22,07,19,5.70
2015,03,22,07,20,5.70
2015,03,22,07,21,5.70
2015,03,22,07,22,5.70
2015,03,22,07,23,5.70
2015,03,22,07,24,5.70
2015,03,22,07,25,5.70
2015,03,22,07,26,5.70
2015,03,22,07,27,5.70
2015,03,22,07,28,5.70
2015,03,22,07,29,5.70
2015,03,22,07,30,5.70
2015,03,22,07,31,5.70
2015,03,22,07,32,5.70
2015,03,22,07,33,5.70
2015,03,22,07,34,5.70
2015,03,22,07,35,5.70
2015,03,22,07,36,5.70
2015,03,22,07,37,5.70
2015,03,22,07,38,5.70
2015,03,22,07,39,5.70
2015,03,22,07,40,5.70
2015,03,22,07,41,5.70
2015,03,22,07,42,5.70
2015,03,22,07,43,5.70
2015,03,22,07,44,5.70
2015,03,22,07,45,5.70
2015,03,22,07,46,5.70
2015,03,22,07,47,5.70
2015,03,22,07,48,5.70
2015,03,22,07,49,5.70
2015,03,22,07,50,5.70
2015,03,22,07,51,5.70
2015,03,22,07,52,5.70
2015,03,22,07,53,5.70
2015,03,22,07,54,5.70
2015,03,22,07,55,5.70
2015,03,22,07,56,5.80
2015,03,22,07,57,5.80
2015,03,22,07,58,5.80
2015,03,22,07,59,5.80
2015,03,22,08,00,5.80
2015,03,22,08,01,5.80
2015,03,22,08,02,5.80
2015,03,22,08,03,5.80
2015,03,22,08,04,5.80
2015,03,22,08,05,5.80
2015,03,22,08,06,5.80
2015,03,22,08,07,5.80
2015,03,22,08,08,5.80
2015,03,22,08,09,5.90
2015,03,22,08,10,5.90
2015,03,22,08,11,5.90
2015,03,22,08,12,5.90
2015,03,22,08,13,5.90
2015,03,22,08,14,5.90
2015,03,22,08,15,5.90
2015,03,22,08,16,5.90
2015,03,22,08,17,5.90
2015,03,22,08,18,5.90
2015,03,22,08,19,5.90
2015,03,22,08,20,5.90
2015,03,22,08,21,5.90
2015,03,22,08,22,5.90
2015,03,22,08,23,6.00
2015,03,22,08,24,6.00
2015,03,22,08,25,6.00
2015,03,22,08,26,6.00
2015,03,22,08,27,6.00
2015,03,22,08,28,6.00
2015,03,22,08,29,6.00
2015,03,22,08,30,6.00
2015,03,22,08,31,6.00
2015,03,22,08,32,6.00
2015,03,22,08,33,6.00
2015,03,22,08,34,6.00
2015,03,22,08,35,6.10
2015,03,22,08,36,6.10
2015,03,22,08,37,6.10
2015,03,22,08,38,6.10
2015,03,22,08,39,6.10
2015,03,22,08,40,6.10
2015,03,22,08,41,6.10
2015,03,22,08,42,6.10
2015,03,22,08,43,6.10
2015,03,22,08,44,6.10
2015,03,22,08,45,6.10
2015,03,22,08,46,6.10
2015,03,22,08,47,6.10
2015,03,22,08,48,6.10
2015,03,22,08,49,6.10
2015,03,22,08,50,6.10
2015,03,22,08,51,6.20
2015,03,22,08,52,6.20
2015,03,22,08,53,6.20
2015,03,22,08,54,6.20
2015,03,22,08,55,6.20
2015,03,22,08,56,6.20
2015,03,22,08,57,6.20
2015,03,22,08,58,6.20
2015,03,22,08,59,6.20
2015,03,22,09,00,6.20
2015,03,22,09,01,6.20
2015,03,22,09,02,6.30
2015,03,22,09,03,6.30
2015,03,22,09,04,6.30
2015,03,22,09,05,6.30
2015,03,22,09,06,6.30
2015,03,22,09,07,6.30
2015,03,22,09,08,6.30
2015,03,22,09,09,6.30
2015,03,22,09,10,6.30
2015,03,22,09,11,6.30
2015,03,22,09,12,6.30
2015,03,22,09,13,6.30
2015,03,22,09,14,6.40
2015,03,22,09,15,6.40
2015,03,22,09,16,6.40
2015,03,22,09,17,6.40
2015,03,22,09,18,6.40
2015,03,22,09,19,6.40
2015,03,22,09,20,6.40
2015,03,22,09,21,6.40
2015,03,22,09,22,6.40
2015,03,22,09,23,6.40
2015,03,22,09,24,6.40
2015,03,22,09,25,6.40
2015,03,22,09,26,6.40
2015,03,22,09,27,6.50
2015,03,22,09,28,6.50
2015,03,22,09,29,6.50
2015,03,22,09,30,6.50
2015,03,22,09,31,6.50
2015,03,22,09,32,6.50
2015,03,22,09,33,6.50
2015,03,22,09,34,6.50
2015,03,22,09,35,6.50
2015,03,22,09,36,6.60
2015,03,22,09,37,6.60
2015,03,22,09,38,6.60
2015,03,22,09,39,6.60
2015,03,22,09,40,6.60
2015,03,22,09,41,6.60
2015,03,22,09,42,6.70
2015,03,22,09,43,6.70
2015,03,22,09,44,6.70
2015,03,22,09,45,6.70
2015,03,22,09,46,6.70
2015,03,22,09,47,6.70
2015,03,22,09,48,6.80
2015,03,22,09,49,6.80
2015,03,22,09,50,6.80
2015,03,22,09,51,6.80
2015,03,22,09,52,6.80
2015,03,22,09,53,6.80
2015,03,22,09,54,6.90
2015,03,22,09,55,6.90
2015,03,22,09,56,6.90
2015,03,22,09,57,6.90
2015,03,22,09,58,6.90
2015,03,22,09,59,6.90
2015,03,22,10,00,7.00
2015,03,22,10,01,7.00
2015,03,22,10,02,7.00
2015,03,22,10,03,7.00
2015,03,22,10,04,7.10
2015,03,22,10,05,7.10
2015,03,22,10,06,7.10
2015,03,22,10,07,7.10
2015,03,22,10,08,7.10
2015,03,22,10,09,7.10
2015,03,22,10,10,7.20
2015,03,22,10,11,7.20
2015,03,22,10,12,7.20
2015,03,22,10,13,7.20
2015,03,22,10,14,7.30
2015,03,22,10,15,7.30
2015,03,22,10,16,7.40
2015,03,22,10,17,7.40
2015,03,22,10,18,7.50
2015,03,22,10,19,7.50
2015,03,22,10,20,7.50
2015,03,22,10,21,7.60
2015,03,22,10,22,7.60
2015,03,22,10,23,7.70
2015,03,22,10,24,7.70
2015,03,22,10,25,7.70
2015,03,22,10,26,7.80
2015,03,22,10,27,7.80
2015,03,22,10,28,7.80
2015,03,22,10,29,7.90
2015,03,22,10,30,7.90
2015,03,22,10,31,8.00
2015,03,22,10,32,8.00
2015,03,22,10,33,8.10
2015,03,22,10,34,8.10
2015,03,22,10,35,8.20
2015,03,22,10,36,8.20
2015,03,22,10,37,8.20
2015,03,22,10,38,8.20
2015,03,22,10,39,8.30
2015,03,22,10,40,8.30
2015,03,22,10,41,8.30
2015,03,22,10,42,8.30
2015,03,22,10,43,8.30
2015,03,22,10,44,8.30
2015,03,22,10,45,8.40
2015,03,22,10,46,8.40
2015,03,22,10,47,8.40
2015,03,22,10,48,8.40
2015,03,22,10,49,8.40
2015,03,22,10,50,8.40
2015,03,22,10,51,8.40
2015,03,22,10,52,8.50
2015,03,22,10,53,8.50
2015,03,22,10,54,8.50
2015,03,22,10,55,8.50
2015,03,22,10,56,8.50
2015,03,22,10,57,8.50
2015,03,22,10,58,8.60
2015,03,22,10,59,8.60
2015,03,22,11,00,8.60
2015,03,22,11,01,8.60
2015,03,22,11,02,8.60
2015,03,22,11,03,8.60
2015,03,22,11,04,8.60
2015,03,22,11,05,8.70
2015,03,22,11,06,8.70
2015,03,22,11,07,8.70
2015,03,22,11,08,8.70
2015,03,22,11,09,8.70
2015,03,22,11,10,8.70
2015,03,22,11,11,8.70
2015,03,22,11,12,8.70
2015,03,22,11,13,8.70
2015,03,22,11,14,8.70
2015,03,22,11,15,8.70
2015,03,22,11,16,8.60
2015,03,22,11,17,8.60
2015,03,22,11,18,8.60
2015,03,22,11,19,8.60
2015,03,22,11,20,8.60
2015,03,22,11,21,8.60
2015,03,22,11,22,8.60
2015,03,22,11,23,8.60
2015,03,22,11,24,8.60
2015,03,22,11,25,8.60
2015,03,22,11,26,8.60
2015,03,22,11,27,8.60
2015,03,22,11,28,8.60
2015,03,22,11,29,8.60
2015,03,22,11,30,8.60
2015,03,22,11,31,8.60
2015,03,22,11,32,8.60
2015,03,22,11,33,8.60
2015,03,22,11,34,8.60
2015,03,22,11,35,8.60
2015,03,22,11,36,8.70
2015,03,22,11,37,8.70
2015,03,22,11,38,8.70
2015,03,22,11,39,8.70
2015,03,22,11,40,8.70
2015,03,22,11,41,8.70
2015,03,22,11,42,8.70
2015,03,22,11,43,8.70
2015,03,22,11,44,8.80
2015,03,22,11,45,8.80
2015,03,22,11,46,8.80
2015,03,22,11,47,8.80
2015,03,22,11,48,8.80
2015,03,22,11,49,8.80
2015,03,22,11,50,8.80
2015,03,22,11,51,8.80
2015,03,22,11,52,8.80
2015,03,22,11,53,8.80
2015,03,22,11,54,8.90
2015,03,22,11,55,8.90
2015,03,22,11,56,8.90
2015,03,22,11,57,8.90
2015,03,22,11,58,8.90
2015,03,22,11,59,9.00
2015,03,22,12,00,9.00
2015,03,22,12,01,9.00
2015,03,22,12,02,9.00
2015,03,22,12,03,9.00
2015,03,22,12,04,9.00
2015,03,22,12,05,9.10
2015,03,22,12,06,9.00
2015,03,22,12,07,9.00
2015,03,22,12,08,9.00
2015,03,22,12,09,8.90
2015,03,22,12,10,8.90
2015,03,22,12,11,9.00
2015,03,22,12,12,9.00
2015,03,22,12,13,9.00
2015,03,22,12,14,9.00
2015,03,22,12,15,9.10
2015,03,22,12,16,9.10
2015,03,22,12,17,9.10
2015,03,22,12,18,9.10
2015,03,22,12,19,9.10
2015,03,22,12,20,9.10
2015,03,22,12,21,9.10
2015,03,22,12,22,9.10
2015,03,22,12,23,9.10
2015,03,22,12,24,9.10
2015,03,22,12,25,9.10
2015,03,22,12,26,9.10
2015,03,22,12,27,9.10
2015,03,22,12,28,9.10
2015,03,22,12,29,9.10
2015,03,22,12,30,9.10
2015,03,22,12,31,9.20
2015,03,22,12,32,9.20
2015,03,22,12,33,9.30
2015,03,22,12,34,9.30
2015,03,22,12,35,9.20
2015,03,22,12,36,9.20
2015,03,22,12,37,9.20
2015,03,22,12,38,9.20
2015,03,22,12,39,9.30
2015,03,22,12,40,9.30
2015,03,22,12,41,9.30
2015,03,22,12,42,9.30
2015,03,22,12,43,9.30
2015,03,22,12,44,9.30
2015,03,22,12,45,9.30
2015,03,22,12,46,9.30
2015,03,22,12,47,9.30
2015,03,22,12,48,9.30
2015,03,22,12,49,9.30
2015,03,22,12,50,9.30
2015,03,22,12,51,9.30
2015,03,22,12,52,9.30
2015,03,22,12,53,9.30
2015,03,22,12,54,9.30
2015,03,22,12,55,9.30
2015,03,22,12,56,9.40
2015,03,22,12,57,9.40
2015,03,22,12,58,9.40
2015,03,22,12,59,9.40
2015,03,22,13,00,9.40
2015,03,22,13,01,9.40
2015,03,22,13,02,9.40
2015,03,22,13,03,9.40
2015,03,22,13,04,9.40
2015,03,22,13,05,9.50
2015,03,22,13,06,9.50
2015,03,22,13,07,9.50
2015,03,22,13,08,9.50
2015,03,22,13,09,9.50
2015,03,22,13,10,9.50
2015,03,22,13,11,9.50
2015,03,22,13,12,9.50
2015,03,22,13,13,9.50
2015,03,22,13,14,9.50
2015,03,22,13,15,9.50
2015,03,22,13,16,9.50
2015,03,22,13,17,9.50
2015,03,22,13,18,9.50
2015,03,22,13,19,9.50
2015,03,22,13,20,9.50
2015,03,22,13,21,9.50
2015,03,22,13,22,9.50
2015,03,22,13,23,9.50
2015,03,22,13,24,9.60
2015,03,22,13,25,9.60
2015,03,22,13,26,9.60
2015,03,22,13,27,9.60
2015,03,22,13,28,9.60
2015,03,22,13,29,9.60
2015,03,22,13,30,9.60
2015,03,22,13,31,9.60
2015,03,22,13,32,9.70
2015,03,22,13,33,9.70
2015,03,22,13,34,9.70
2015,03,22,13,35,9.70
2015,03,22,13,36,9.70
2015,03,22,13,37,9.70
2015,03,22,13,38,9.70
2015,03,22,13,39,9.70
2015,03,22,13,40,9.70
2015,03,22,13,41,9.80
2015,03,22,13,42,9.80
2015,03,22,13,43,9.80
2015,03,22,13,44,9.80
2015,03,22,13,45,9.90
2015,03,22,13,46,9.90
2015,03,22,13,47,9.90
2015,03,22,13,48,9.90
2015,03,22,13,49,9.90
2015,03,22,13,50,9.90
2015,03,22,13,51,9.90
2015,03,22,13,52,9.90
2015,03,22,13,53,9.90
2015,03,22,13,54,9.90
2015,03,22,13,55,9.90
2015,03,22,13,56,9.90
2015,03,22,13,57,9.90
2015,03,22,13,58,9.90
2015,03,22,13,59,9.90
2015,03,22,14,00,9.90
2015,03,22,14,01,10.00
2015,03,22,14,02,10.00
2015,03,22,14,03,10.00
2015,03,22,14,04,9.90
2015,03,22,14,05,9.90
2015,03,22,14,06,9.90
2015,03,22,14,07,9.90
2015,03,22,14,08,9.90
2015,03,22,14,09,9.90
2015,03,22,14,10,9.90
2015,03,22,14,11,9.90
2015,03,22,14,12,9.90
2015,03,22,14,13,9.90
2015,03,22,14,14,9.90
2015,03,22,14,15,9.80
2015,03,22,14,16,9.80
2015,03,22,14,17,9.80
2015,03,22,14,18,9.80
2015,03,22,14,19,9.80
2015,03,22,14,20,9.80
2015,03,22,14,21,9.80
2015,03,22,14,22,9.90
2015,03,22,14,23,9.90
2015,03,22,14,24,9.90
2015,03,22,14,25,9.90
2015,03,22,14,26,9.90
2015,03,22,14,27,9.90
2015,03,22,14,28,9.80
2015,03,22,14,29,9.80
2015,03,22,14,30,9.80
2015,03,22,14,31,9.80
2015,03,22,14,32,9.80
2015,03,22,14,33,9.80
2015,03,22,14,34,9.80
2015,03,22,14,35,9.80
2015,03,22,14,36,9.80
2015,03,22,14,37,9.80
2015,03,22,14,38,9.80
2015,03,22,14,39,9.80
2015,03,22,14,40,9.80
2015,03,22,14,41,9.80
2015,03,22,14,42,9.80
2015,03,22,14,43,9.80
2015,03,22,14,44,9.80
2015,03,22,14,45,9.80
2015,03,22,14,46,9.80
2015,03,22,14,47,9.80
2015,03,22,14,48,9.80
2015,03,22,14,49,9.80
2015,03,22,14,50,9.80
2015,03,22,14,51,9.80
2015,03,22,14,52,9.80
2015,03,22,14,53,9.80
2015,03,22,14,54,9.90
2015,03,22,14,55,9.90
2015,03,22,14,56,9.90
2015,03,22,14,57,9.90
2015,03,22,14,58,9.90
2015,03,22,14,59,10.00
2015,03,22,15,00,10.00
2015,03,22,15,01,10.10
2015,03,22,15,02,10.10
2015,03,22,15,03,10.10
2015,03,22,15,04,10.10
2015,03,22,15,05,10.10
2015,03,22,15,06,10.10
2015,03,22,15,07,10.10
2015,03,22,15,08,10.10
2015,03,22,15,09,10.10
2015,03,22,15,10,10.10
2015,03,22,15,11,10.10
2015,03,22,15,12,10.10
2015,03,22,15,13,10.10
2015,03,22,15,14,10.20
2015,03,22,15,15,10.20
2015,03,22,15,16,10.20
2015,03,22,15,17,10.20
2015,03,22,15,18,10.10
2015,03,22,15,19,10.10
2015,03,22,15,20,10.10
2015,03,22,15,21,10.10
2015,03,22,15,22,10.10
2015,03,22,15,23,10.10
2015,03,22,15,24,10.10
2015,03,22,15,25,10.10
2015,03,22,15,26,10.00
2015,03,22,15,27,10.00
2015,03,22,15,28,10.00
2015,03,22,15,29,10.00
2015,03,22,15,30,10.00
2015,03,22,15,31,10.00
2015,03,22,15,32,10.00
2015,03,22,15,33,10.00
2015,03,22,15,34,10.00
2015,03,22,15,35,10.00
2015,03,22,15,36,10.00
2015,03,22,15,37,10.00
2015,03,22,15,38,10.00
2015,03,22,15,39,10.00
2015,03,22,15,40,10.00
2015,03,22,15,41,10.00
2015,03,22,15,42,10.10
2015,03,22,15,43,10.10
2015,03,22,15,44,10.10
2015,03,22,15,45,10.10
2015,03,22,15,46,10.10
2015,03,22,15,47,10.20
2015,03,22,15,48,10.20
2015,03,22,15,49,10.20
2015,03,22,15,50,10.20
2015,03,22,15,51,10.10
2015,03,22,15,52,10.10
2015,03,22,15,53,10.10
2015,03,22,15,54,10.10
2015,03,22,15,55,10.10
2015,03,22,15,56,10.10
2015,03,22,15,57,10.00
2015,03,22,15,58,10.00
2015,03,22,15,59,10.00
2015,03,22,16,00,10.00
2015,03,22,16,01,10.00
2015,03,22,16,02,10.00
2015,03,22,16,03,10.00
2015,03,22,16,04,10.00
2015,03,22,16,05,10.00
2015,03,22,16,06,9.90
2015,03,22,16,07,9.90
2015,03,22,16,08,9.90
2015,03,22,16,09,9.90
2015,03,22,16,10,9.90
2015,03,22,16,11,9.90
2015,03,22,16,12,9.90
2015,03,22,16,13,9.90
2015,03,22,16,14,9.90
2015,03,22,16,15,9.90
2015,03,22,16,16,9.80
2015,03,22,16,17,9.80
2015,03,22,16,18,9.80
2015,03,22,16,19,9.80
2015,03,22,16,20,9.80
2015,03,22,16,21,9.70
2015,03,22,16,22,9.70
2015,03,22,16,23,9.70
2015,03,22,16,24,9.70
2015,03,22,16,25,9.70
2015,03,22,16,26,9.70
2015,03,22,16,27,9.70
2015,03,22,16,28,9.70
2015,03,22,16,29,9.70
2015,03,22,16,30,9.70
2015,03,22,16,31,9.70
2015,03,22,16,32,9.70
2015,03,22,16,33,9.70
2015,03,22,16,34,9.70
2015,03,22,16,35,9.70
2015,03,22,16,36,9.70
2015,03,22,16,37,9.70
2015,03,22,16,38,9.70
2015,03,22,16,39,9.70
2015,03,22,16,40,9.70
2015,03,22,16,41,9.70
2015,03,22,16,42,9.70
2015,03,22,16,43,9.70
2015,03,22,16,44,9.70
2015,03,22,16,45,9.70
2015,03,22,16,46,9.70
2015,03,22,16,47,9.70
2015,03,22,16,48,9.70
2015,03,22,16,49,9.70
2015,03,22,16,50,9.70
2015,03,22,16,51,9.60
2015,03,22,16,52,9.60
2015,03,22,16,53,9.70
2015,03,22,16,54,9.70
2015,03,22,16,55,9.70
2015,03,22,16,56,9.60
2015,03,22,16,57,9.60
2015,03,22,16,58,9.60
2015,03,22,16,59,9.60
2015,03,22,17,00,9.60
2015,03,22,17,01,9.60
2015,03,22,17,02,9.60
2015,03,22,17,03,9.60
2015,03,22,17,04,9.60
2015,03,22,17,05,9.60
2015,03,22,17,06,9.60
2015,03,22,17,07,9.60
2015,03,22,17,08,9.60
2015,03,22,17,09,9.60
2015,03,22,17,10,9.60
2015,03,22,17,11,9.60
2015,03,22,17,12,9.60
2015,03,22,17,13,9.60
2015,03,22,17,14,9.60
2015,03,22,17,15,9.60
2015,03,22,17,16,9.60
2015,03,22,17,17,9.60
2015,03,22,17,18,9.60
2015,03,22,17,19,9.60
2015,03,22,17,20,9.50
2015,03,22,17,21,9.50
2015,03,22,17,22,9.50
2015,03,22,17,23,9.50
2015,03,22,17,24,9.50
2015,03,22,17,25,9.50
2015,03,22,17,26,9.50
2015,03,22,17,27,9.50
2015,03,22,17,28,9.50
2015,03,22,17,29,9.50
2015,03,22,17,30,9.50
2015,03,22,17,31,9.40
2015,03,22,17,32,9.40
2015,03,22,17,33,9.40
2015,03,22,17,34,9.40
2015,03,22,17,35,9.40
2015,03,22,17,36,9.40
2015,03,22,17,37,9.40
2015,03,22,17,38,9.40
2015,03,22,17,39,9.40
2015,03,22,17,40,9.40
2015,03,22,17,41,9.40
2015,03,22,17,42,9.40
2015,03,22,17,43,9.30
2015,03,22,17,44,9.30
2015,03,22,17,45,9.30
2015,03,22,17,46,9.30
2015,03,22,17,47,9.30
2015,03,22,17,48,9.30
2015,03,22,17,49,9.30
2015,03,22,17,50,9.30
2015,03,22,17,51,9.30
2015,03,22,17,52,9.30
2015,03,22,17,53,9.30
2015,03,22,17,54,9.20
2015,03,22,17,55,9.20
2015,03,22,17,56,9.20
2015,03,22,17,57,9.20
2015,03,22,17,58,9.20
2015,03,22,17,59,9.20
2015,03,22,18,00,9.20
2015,03,22,18,01,9.20
2015,03,22,18,02,9.20
2015,03,22,18,03,9.10